Time,TemperatureF,DewpointF,PressureIn,WindDirection,WindDirectionDegrees,WindSpeedMPH,WindSpeedGustMPH,Humidity,HourlyPrecipIn,Conditions,Clouds,dailyrainin,SoftwareType,DateUTC
2013-09-05 00:04:00,68.6,49.8,30.34,East,90,0.4,0.4,51,0.00,,,0.00,WUHU216HW,2013-09-05 06:04:00,
2013-09-05 00:29:00,68.9,49.6,30.35,East,90,0.4,0.4,50,0.00,,,0.00,WUHU216HW,2013-09-05 06:29:00,
2013-09-05 00:34:00,68.9,49.6,30.35,East,90,0.4,0.4,50,0.00,,,0.00,WUHU216HW,2013-09-05 06:34:00,
2013-09-05 00:59:00,69.1,49.8,30.35,East,90,0.4,0.4,50,0.00,,,0.00,WUHU216HW,2013-09-05 06:59:00,
2013-09-05 01:04:00,69.1,49.8,30.35,East,90,0.4,0.4,50,0.00,,,0.00,WUHU216HW,2013-09-05 07:04:00,
2013-09-05 01:29:00,69.5,50.0,30.35,East,90,0.0,0.0,50,0.00,,,0.00,WUHU216HW,2013-09-05 07:29:00,
2013-09-05 01:34:00,69.5,50.0,30.35,East,90,0.0,0.0,50,0.00,,,0.00,WUHU216HW,2013-09-05 07:34:00,
2013-09-05 01:59:00,69.3,49.3,30.34,East,90,0.2,0.2,49,0.00,,,0.00,WUHU216HW,2013-09-05 07:59:00,
2013-09-05 02:04:00,69.3,49.3,30.34,East,90,0.2,0.2,49,0.00,,,0.00,WUHU216HW,2013-09-05 08:04:00,
2013-09-05 02:29:00,68.4,49.2,30.34,East,90,0.0,0.0,50,0.00,,,0.00,WUHU216HW,2013-09-05 08:29:00,
2013-09-05 02:34:00,68.4,49.2,30.34,East,90,0.0,0.0,50,0.00,,,0.00,WUHU216HW,2013-09-05 08:34:00,
2013-09-05 02:59:00,68.4,48.5,30.34,East,90,0.2,0.2,49,0.00,,,0.00,WUHU216HW,2013-09-05 08:59:00,
2013-09-05 03:04:00,68.4,48.5,30.34,East,90,0.2,0.2,49,0.00,,,0.00,WUHU216HW,2013-09-05 09:04:00,
2013-09-05 03:29:00,67.7,47.9,30.34,ESE,113,0.0,0.0,49,0.00,,,0.00,WUHU216HW,2013-09-05 09:29:00,
2013-09-05 03:34:00,67.7,47.9,30.34,ESE,113,0.0,0.0,49,0.00,,,0.00,WUHU216HW,2013-09-05 09:34:00,
2013-09-05 03:59:00,67.7,47.9,30.34,NE,45,0.9,0.9,49,0.00,,,0.00,WUHU216HW,2013-09-05 09:59:00,
2013-09-05 04:04:00,67.7,47.9,30.34,NE,45,0.9,0.9,49,0.00,,,0.00,WUHU216HW,2013-09-05 10:04:00,
2013-09-05 04:29:00,67.0,47.3,30.34,ENE,68,0.4,0.4,49,0.00,,,0.00,WUHU216HW,2013-09-05 10:29:00,
2013-09-05 04:34:00,67.0,47.3,30.34,ENE,68,0.4,0.4,49,0.00,,,0.00,WUHU216HW,2013-09-05 10:34:00,
2013-09-05 04:59:00,66.8,47.1,30.34,ENE,68,0.0,0.0,49,0.00,,,0.00,WUHU216HW,2013-09-05 10:59:00,
2013-09-05 05:04:00,66.8,47.1,30.34,ENE,68,0.0,0.0,49,0.00,,,0.00,WUHU216HW,2013-09-05 11:04:00,
2013-09-05 05:29:00,65.7,47.1,30.35,ENE,68,0.0,0.0,51,0.00,,,0.00,WUHU216HW,2013-09-05 11:29:00,
2013-09-05 05:34:00,65.7,47.1,30.35,ENE,68,0.0,0.0,51,0.00,,,0.00,WUHU216HW,2013-09-05 11:34:00,
2013-09-05 05:59:00,64.4,46.8,30.35,SE,135,0.7,0.7,53,0.00,,,0.00,WUHU216HW,2013-09-05 11:59:00,
2013-09-05 06:04:00,64.4,46.8,30.35,SE,135,0.7,0.7,53,0.00,,,0.00,WUHU216HW,2013-09-05 12:04:00,
2013-09-05 06:29:00,62.6,47.2,30.36,SSW,203,0.0,0.0,57,0.00,,,0.00,WUHU216HW,2013-09-05 12:29:00,
2013-09-05 06:34:00,62.6,47.2,30.36,SSW,203,0.0,0.0,57,0.00,,,0.00,WUHU216HW,2013-09-05 12:34:00,
2013-09-05 06:59:00,62.5,48.0,30.36,NE,45,0.0,0.0,59,0.00,,,0.00,WUHU216HW,2013-09-05 12:59:00,
2013-09-05 07:04:00,62.5,48.0,30.36,NE,45,0.0,0.0,59,0.00,,,0.00,WUHU216HW,2013-09-05 13:04:00,
2013-09-05 07:29:00,63.0,47.4,30.36,ENE,68,0.0,0.0,57,0.00,,,0.00,WUHU216HW,2013-09-05 13:29:00,
2013-09-05 07:34:00,63.0,47.4,30.36,ENE,68,0.0,0.0,57,0.00,,,0.00,WUHU216HW,2013-09-05 13:34:00,
2013-09-05 07:59:00,63.7,48.2,30.36,ENE,68,0.2,0.2,57,0.00,,,0.00,WUHU216HW,2013-09-05 13:59:00,
2013-09-05 08:04:00,63.7,48.2,30.36,ENE,68,0.2,0.2,57,0.00,,,0.00,WUHU216HW,2013-09-05 14:04:00,
2013-09-05 08:29:00,67.1,49.4,30.37,NE,45,0.0,0.0,53,0.00,,,0.00,WUHU216HW,2013-09-05 14:29:00,
2013-09-05 08:34:00,67.1,49.4,30.37,NE,45,0.0,0.0,53,0.00,,,0.00,WUHU216HW,2013-09-05 14:34:00,
2013-09-05 08:59:00,70.0,51.0,30.36,ENE,68,0.4,0.4,51,0.00,,,0.00,WUHU216HW,2013-09-05 14:59:00,
2013-09-05 09:04:00,70.0,51.0,30.36,ENE,68,0.4,0.4,51,0.00,,,0.00,WUHU216HW,2013-09-05 15:04:00,
2013-09-05 09:29:00,72.4,51.5,30.37,NNE,23,0.0,0.0,48,0.00,,,0.00,WUHU216HW,2013-09-05 15:29:00,
2013-09-05 09:34:00,72.4,51.5,30.37,NNE,23,0.0,0.0,48,0.00,,,0.00,WUHU216HW,2013-09-05 15:34:00,
2013-09-05 09:59:00,74.3,51.0,30.37,South,180,0.4,0.4,44,0.00,,,0.00,WUHU216HW,2013-09-05 15:59:00,
2013-09-05 10:04:00,74.3,51.0,30.37,South,180,0.4,0.4,44,0.00,,,0.00,WUHU216HW,2013-09-05 16:04:00,
2013-09-05 10:29:00,76.0,50.6,30.37,East,90,0.0,0.0,41,0.00,,,0.00,WUHU216HW,2013-09-05 16:29:00,
2013-09-05 10:34:00,76.0,50.6,30.37,East,90,0.0,0.0,41,0.00,,,0.00,WUHU216HW,2013-09-05 16:34:00,
2013-09-05 10:59:00,77.0,51.6,30.37,East,90,0.0,0.0,41,0.00,,,0.00,WUHU216HW,2013-09-05 16:59:00,
2013-09-05 11:04:00,77.0,51.6,30.37,East,90,0.0,0.0,41,0.00,,,0.00,WUHU216HW,2013-09-05 17:04:00,
2013-09-05 11:29:00,78.3,53.3,30.37,East,90,0.0,0.0,42,0.00,,,0.00,WUHU216HW,2013-09-05 17:29:00,
2013-09-05 11:34:00,78.3,53.3,30.37,East,90,0.0,0.0,42,0.00,,,0.00,WUHU216HW,2013-09-05 17:34:00,
2013-09-05 11:59:00,79.6,53.8,30.36,NNW,338,0.0,0.0,41,0.00,,,0.00,WUHU216HW,2013-09-05 17:59:00,
2013-09-05 12:04:00,79.6,53.8,30.36,NNW,338,0.0,0.0,41,0.00,,,0.00,WUHU216HW,2013-09-05 18:04:00,
2013-09-05 12:29:00,81.0,53.7,30.35,NE,45,0.4,0.4,39,0.00,,,0.00,WUHU216HW,2013-09-05 18:29:00,
2013-09-05 12:34:00,81.0,53.7,30.35,NE,45,0.4,0.4,39,0.00,,,0.00,WUHU216HW,2013-09-05 18:34:00,
2013-09-05 12:59:00,82.3,53.3,30.34,ESE,113,1.3,1.3,37,0.00,,,0.00,WUHU216HW,2013-09-05 18:59:00,
2013-09-05 13:04:00,82.3,53.3,30.34,ESE,113,1.3,1.3,37,0.00,,,0.00,WUHU216HW,2013-09-05 19:04:00,
2013-09-05 13:29:00,83.5,51.2,30.34,North,0,1.3,1.3,33,0.00,,,0.00,WUHU216HW,2013-09-05 19:29:00,
2013-09-05 13:34:00,83.5,51.2,30.34,North,0,1.3,1.3,33,0.00,,,0.00,WUHU216HW,2013-09-05 19:34:00,
2013-09-05 13:59:00,83.9,50.8,30.33,WNW,293,1.8,1.8,32,0.00,,,0.00,WUHU216HW,2013-09-05 19:59:00,
2013-09-05 14:04:00,83.9,50.8,30.33,WNW,293,1.8,1.8,32,0.00,,,0.00,WUHU216HW,2013-09-05 20:04:00,
2013-09-05 14:29:00,84.2,51.1,30.33,ESE,113,0.7,0.7,32,0.00,,,0.00,WUHU216HW,2013-09-05 20:29:00,
2013-09-05 14:34:00,84.2,51.1,30.33,ESE,113,0.7,0.7,32,0.00,,,0.00,WUHU216HW,2013-09-05 20:34:00,
2013-09-05 14:59:00,85.0,50.1,30.32,NNE,23,0.7,0.7,30,0.00,,,0.00,WUHU216HW,2013-09-05 20:59:00,
2013-09-05 15:04:00,85.0,50.1,30.32,NNE,23,0.7,0.7,30,0.00,,,0.00,WUHU216HW,2013-09-05 21:04:00,
2013-09-05 15:29:00,85.5,49.6,30.31,NE,45,0.4,0.4,29,0.00,,,0.00,WUHU216HW,2013-09-05 21:29:00,
2013-09-05 15:34:00,85.5,49.6,30.31,NE,45,0.4,0.4,29,0.00,,,0.00,WUHU216HW,2013-09-05 21:34:00,
2013-09-05 15:59:00,85.0,49.1,30.31,East,90,0.0,0.0,29,0.00,,,0.00,WUHU216HW,2013-09-05 21:59:00,
2013-09-05 16:04:00,85.0,49.1,30.31,East,90,0.0,0.0,29,0.00,,,0.00,WUHU216HW,2013-09-05 22:04:00,